FENGYUN 1C DEB

Satellite information

Favourite Embed

Satellite Type and Status

DEBRISIN ORBIT

Key statistics

Satellite FENGYUN 1C DEB at a glance.

Uptime

9715

Days in orbit

Revolutions

≈ 14.2

Per day

Orbit

SSO

Sun Synchronous Orbit

Inclination

99.4

Latest

Satellite identification and parameters

Extended collection of information and parameters for FENGYUN 1C DEB.

Object identification

Identified? True

Debris? True

Object name: FENGYUN 1C DEB

International designator: 1999-025QA

Object number (NORAD): 30073

Object ID (CCSDS): 30073

Country: PEOPLES REPUBLIC OF CHINA (PRC)

Current information (Y/N): Y

RCS size: SMALL

Orbital parameters

Period: 101.503 minutes

Inclination: 99.4117 deg

SMA: 7207.97 km

Apoapsis: 868.426 km

Periapsis: 791.245 km

RAAN: 320.6245 deg

Eccentricy: 0.00535388

Argument of periapsis: 278.7623 deg

Mean anomaly: 206.7292 deg

Mean motion: 14.1867617 rev/day

Mean motion (dot): 0.00005347 rev/day2

B* drag term: 0.0025632856 1/REarth

Two-line elements (TLE)

Creation date: Dec. 14, 2025, 3:07 a.m.

Reference frame: TEME

Reference center: EARTH

Epoch: Dec. 13, 2025, 10:49 a.m. UTC

TLE line 0: 0 FENGYUN 1C DEB

TLE line 1: 1 30073U 99025QA 25347.45119179 .00005347 00000-0 25633-2 0 9996

TLE line 2: 2 30073 99.4117 320.6245 0053539 278.7623 206.7292 14.18676170969359

Live tracking on map

Real-time ground track for satellite FENGYUN 1C DEB.

In-orbit conjunctions

A list of the most updated potential collisions computed for object FENGYUN 1C DEB.

Target Orbit TCA Probability of collision Miss distance Type
COSMOS 1275 DEB LEO 2025-03-09 07:45:18 0.0002352134 131.0 (m) DEBRIS
COSMOS 252 DEB * LEO 2024-11-12 01:56:05 0.0002275506 780.0 (m) DEBRIS
METEOR 1-24 LEO 2024-10-15 22:52:45 0.0001069729 766.0 (m) PAYLOAD
METEOR 2-12 DEB LEO 2024-07-27 06:17:54 0.0001236959 72.0 (m) DEBRIS

Associated space launch

Chinese polar orbiting meteorological satellite

FENGYUN 1C DEB was lifted into orbit during the mission ‘Long March 4B | Feng Yun 1C’, on board a Long March 4B space rocket.

The launch took place on May 10, 1999, 1:33 a.m. from Launch Complex 7.

For more information about the launch, click the button.

Launch to space Long March 4B | Feng Yun 1C
Long March 4B | Feng Yun 1C

Agency: N/A

Status: Launch Successful

Launch date: May 10, 1999, 1:33 a.m. UTC

Rocket: Long March 4B

Launch pad: Launch Complex 7

Location: Taiyuan Satellite Launch Center, People's Republic of China

...

Latest news about this satellite

There are no fresh news available about this satellite. Check back as we update our databases every day.


Newsletter sign-up

Weekly statistics, charts and insights to help you stay on top of the space industry.